Simultaneous Nadir Overpasses (SNOs) Predictions

Prediction of SNOs between GOES-16 and METOP-C Satellite Orbit:

Table of predicted SNOs for the next 14.0 days since TLE Epoch: 3/6/2021
Index Date Time (GOES-16) GOES-16 Lat,Lon METOP-C Lat,Lon Distance(km) Time Diff (sec)
1 03/06/2021 14:29:50 0.02, -75.22 -0.06, -74.81 46.54 80
2 03/08/2021 02:51:29 -0.02, -75.18 -0.99, -79.39 480.73 80
3 03/09/2021 02:28:10 -0.02, -75.18 0.12, -74.40 88.37 80
4 03/10/2021 14:47:03 0.03, -75.22 0.84, -78.97 427.74 80
5 03/11/2021 14:29:04 0.03, -75.22 -0.27, -73.98 141.97 80
6 03/13/2021 02:48:03 -0.02, -75.20 -0.77, -78.57 383.56 80
7 03/14/2021 02:24:43 -0.02, -75.21 0.34, -73.57 186.61 80
8 03/15/2021 14:43:36 0.02, -75.26 0.69, -78.13 328.11 80
9 03/16/2021 14:25:36 0.02, -75.27 -0.42, -73.14 242.58 80
10 03/18/2021 02:44:36 -0.02, -75.27 -0.60, -77.73 281.67 80
11 03/19/2021 02:21:17 -0.02, -75.28 0.57, -72.75 289.05 80
